Location: Mohawk View
(42.7837°N, 73.7885°W)
Time: 08:36:45
(UTC+00:00)

Cosmos 1825 - Pass Details

Date: 17 June 2021
Orbit: 500 x 507 km, 82.5° (Epoch: 27 July)

Event Time Altitude Azimuth Distance (km) Brightness Sun altitude
Exits shadow 05:52:40 41° 97° (E) 741 2.9 -22.6°
Maximum altitude 05:52:45 42° 93° (E) 740 3.0 -22.6°
Drops below altitude 10° 05:56:19 10° 22° (NNE) 1,728 6.0 -22.4°
Sets 05:58:31 0° 16° (NNE) 2,617 7.3 -22.3°
